Time,TemperatureF,DewpointF,PressureIn,WindDirection,WindDirectionDegrees,WindSpeedMPH,WindSpeedGustMPH,Humidity,HourlyPrecipIn,Conditions,Clouds,dailyrainin,SoftwareType,DateUTC
2013-06-08 00:05:00,77.3,74.1,29.85,SW,224,7.0,8.0,90,0.00,,,0.00,Wunderground v.1.15,2013-06-08 04:05:00,
2013-06-08 00:10:00,77.4,74.2,29.85,SW,233,7.0,8.0,90,0.00,,,0.00,Wunderground v.1.15,2013-06-08 04:10:00,
2013-06-08 00:15:00,77.3,74.1,29.85,WSW,251,7.0,8.0,90,0.00,,,0.00,Wunderground v.1.15,2013-06-08 04:15:00,
2013-06-08 00:25:00,77.2,74.0,29.85,SW,236,6.0,7.0,90,0.00,,,0.00,Wunderground v.1.15,2013-06-08 04:25:00,
2013-06-08 00:35:00,77.3,74.1,29.86,SW,234,7.0,8.0,90,0.00,,,0.00,Wunderground v.1.15,2013-06-08 04:35:00,
2013-06-08 00:40:00,77.3,74.5,29.86,SW,225,7.0,7.0,91,0.00,,,0.00,Wunderground v.1.15,2013-06-08 04:40:00,
2013-06-08 00:50:00,77.2,74.4,29.86,SW,219,6.0,6.0,91,0.00,,,0.00,Wunderground v.1.15,2013-06-08 04:50:00,
2013-06-08 00:55:00,77.1,74.3,29.86,SW,229,6.0,7.0,91,0.00,,,0.00,Wunderground v.1.15,2013-06-08 04:55:00,
2013-06-08 01:05:00,77.1,74.6,29.86,SW,220,6.0,9.0,92,0.00,,,0.00,Wunderground v.1.15,2013-06-08 05:05:00,
2013-06-08 01:15:00,77.0,74.5,29.86,SW,229,7.0,10.0,92,0.00,,,0.00,Wunderground v.1.15,2013-06-08 05:15:00,
2013-06-08 01:20:00,76.9,74.4,29.86,SW,218,7.0,8.0,92,0.00,,,0.00,Wunderground v.1.15,2013-06-08 05:20:00,
2013-06-08 01:30:00,76.8,74.3,29.86,WSW,249,7.0,7.0,92,0.00,,,0.00,Wunderground v.1.15,2013-06-08 05:30:00,
2013-06-08 01:35:00,76.7,74.2,29.86,SW,233,7.0,10.0,92,0.00,,,0.00,Wunderground v.1.15,2013-06-08 05:35:00,
2013-06-08 01:40:00,76.7,74.2,29.86,SW,232,8.0,8.0,92,0.00,,,0.00,Wunderground v.1.15,2013-06-08 05:40:00,
2013-06-08 01:50:00,76.7,74.2,29.86,SW,232,8.0,10.0,92,0.00,,,0.00,Wunderground v.1.15,2013-06-08 05:50:00,
2013-06-08 02:00:00,76.7,74.2,29.86,SW,232,8.0,10.0,92,0.00,,,0.00,Wunderground v.1.15,2013-06-08 06:00:00,
2013-06-08 02:05:00,76.6,74.1,29.86,SW,215,8.0,10.0,92,0.00,,,0.00,Wunderground v.1.15,2013-06-08 06:05:00,
2013-06-08 02:15:00,76.6,74.1,29.86,SW,230,7.0,8.0,92,0.00,,,0.00,Wunderground v.1.15,2013-06-08 06:15:00,
2013-06-08 02:25:00,76.6,74.1,29.86,WSW,250,7.0,7.0,92,0.00,,,0.00,Wunderground v.1.15,2013-06-08 06:25:00,
2013-06-08 02:35:00,76.6,74.1,29.86,SW,226,7.0,7.0,92,0.00,,,0.00,Wunderground v.1.15,2013-06-08 06:35:00,
2013-06-08 02:45:00,76.6,74.1,29.86,SSW,212,7.0,7.0,92,0.00,,,0.00,Wunderground v.1.15,2013-06-08 06:45:00,
2013-06-08 02:50:00,76.6,74.1,29.86,SW,219,7.0,7.0,92,0.00,,,0.00,Wunderground v.1.15,2013-06-08 06:50:00,
2013-06-08 03:00:00,76.5,74.0,29.87,WSW,242,7.0,7.0,92,0.00,,,0.00,Wunderground v.1.15,2013-06-08 07:00:00,
2013-06-08 03:10:00,76.5,74.0,29.86,SW,234,6.0,6.0,92,0.00,,,0.00,Wunderground v.1.15,2013-06-08 07:10:00,
2013-06-08 03:15:00,76.5,74.0,29.86,WSW,240,6.0,6.0,92,0.00,,,0.00,Wunderground v.1.15,2013-06-08 07:15:00,
2013-06-08 03:25:00,76.4,73.9,29.87,SW,229,2.0,4.0,92,0.00,,,0.00,Wunderground v.1.15,2013-06-08 07:25:00,
2013-06-08 03:35:00,76.4,73.9,29.86,WSW,252,0.0,0.0,92,0.00,,,0.00,Wunderground v.1.15,2013-06-08 07:35:00,
2013-06-08 03:45:00,76.4,73.9,29.86,SW,223,0.0,0.0,92,0.00,,,0.00,Wunderground v.1.15,2013-06-08 07:45:00,
2013-06-08 03:50:00,76.5,74.0,29.86,SW,221,0.0,0.0,92,0.00,,,0.00,Wunderground v.1.15,2013-06-08 07:50:00,
2013-06-08 04:00:00,76.4,73.9,29.86,SW,229,0.0,0.0,92,0.00,,,0.00,Wunderground v.1.15,2013-06-08 08:00:00,
2013-06-08 04:10:00,76.4,74.2,29.86,SW,229,0.0,0.0,93,0.00,,,0.00,Wunderground v.1.15,2013-06-08 08:10:00,
2013-06-08 04:15:00,76.4,74.2,29.86,SW,224,0.0,0.0,93,0.00,,,0.00,Wunderground v.1.15,2013-06-08 08:15:00,
2013-06-08 04:20:00,76.4,74.2,29.86,SW,233,0.0,0.0,93,0.00,,,0.00,Wunderground v.1.15,2013-06-08 08:20:00,
2013-06-08 04:30:00,76.4,74.2,29.87,WSW,249,0.0,0.0,93,0.00,,,0.00,Wunderground v.1.15,2013-06-08 08:30:00,
2013-06-08 04:35:00,76.4,74.2,29.88,WSW,250,0.0,0.0,93,0.00,,,0.00,Wunderground v.1.15,2013-06-08 08:35:00,
2013-06-08 04:45:00,76.5,74.3,29.88,WSW,237,0.0,0.0,93,0.00,,,0.00,Wunderground v.1.15,2013-06-08 08:45:00,
2013-06-08 04:50:00,76.5,74.3,29.88,WSW,252,0.0,0.0,93,0.00,,,0.00,Wunderground v.1.15,2013-06-08 08:50:00,
2013-06-08 05:00:00,76.4,74.2,29.88,SW,236,0.0,0.0,93,0.00,,,0.00,Wunderground v.1.15,2013-06-08 09:00:00,
2013-06-08 05:10:00,76.4,74.2,29.88,SW,228,0.0,0.0,93,0.00,,,0.00,Wunderground v.1.15,2013-06-08 09:10:00,
2013-06-08 05:20:00,76.4,74.5,29.88,SW,230,0.0,0.0,94,0.00,,,0.00,Wunderground v.1.15,2013-06-08 09:20:00,
2013-06-08 05:30:00,76.4,74.5,29.88,SW,217,0.0,0.0,94,0.00,,,0.00,Wunderground v.1.15,2013-06-08 09:30:00,
2013-06-08 05:35:00,76.4,74.5,29.88,SW,222,0.0,0.0,94,0.00,,,0.00,Wunderground v.1.15,2013-06-08 09:35:00,
2013-06-08 05:45:00,76.5,74.6,29.88,WSW,242,0.0,0.0,94,0.00,,,0.00,Wunderground v.1.15,2013-06-08 09:45:00,
2013-06-08 05:50:00,76.5,74.6,29.89,SW,221,0.0,0.0,94,0.00,,,0.00,Wunderground v.1.15,2013-06-08 09:50:00,
2013-06-08 06:00:00,76.5,74.6,29.89,SW,221,0.0,0.0,94,0.00,,,0.00,Wunderground v.1.15,2013-06-08 10:00:00,
2013-06-08 06:10:00,76.5,75.0,29.89,SW,216,0.0,0.0,95,0.00,,,0.00,Wunderground v.1.15,2013-06-08 10:10:00,
2013-06-08 06:20:00,76.6,75.1,29.89,SW,217,0.0,0.0,95,0.00,,,0.00,Wunderground v.1.15,2013-06-08 10:20:00,
2013-06-08 06:30:00,76.6,75.1,29.89,SSW,209,0.0,0.0,95,0.00,,,0.00,Wunderground v.1.15,2013-06-08 10:30:00,
2013-06-08 06:35:00,76.6,75.1,29.90,SW,221,0.0,0.0,95,0.00,,,0.00,Wunderground v.1.15,2013-06-08 10:35:00,
2013-06-08 06:45:00,76.7,75.2,29.90,WSW,246,0.0,0.0,95,0.00,,,0.00,Wunderground v.1.15,2013-06-08 10:45:00,
2013-06-08 06:55:00,76.7,75.2,29.90,SW,229,0.0,0.0,95,0.00,,,0.00,Wunderground v.1.15,2013-06-08 10:55:00,
2013-06-08 07:05:00,76.8,75.3,29.90,SW,236,0.0,0.0,95,0.00,,,0.00,Wunderground v.1.15,2013-06-08 11:05:00,
2013-06-08 07:15:00,76.8,74.9,29.90,WSW,240,0.0,0.0,94,0.00,,,0.00,Wunderground v.1.15,2013-06-08 11:15:00,
2013-06-08 07:25:00,76.9,75.0,29.91,SW,234,0.0,0.0,94,0.00,,,0.00,Wunderground v.1.15,2013-06-08 11:25:00,
2013-06-08 07:35:00,77.1,74.9,29.91,SW,215,0.0,0.0,93,0.00,,,0.00,Wunderground v.1.15,2013-06-08 11:35:00,
2013-06-08 07:45:00,77.4,74.6,29.91,WSW,242,0.0,0.0,91,0.00,,,0.00,Wunderground v.1.15,2013-06-08 11:45:00,
2013-06-08 07:55:00,78.1,74.6,29.92,WSW,251,0.0,0.0,89,0.00,,,0.00,Wunderground v.1.15,2013-06-08 11:55:00,
2013-06-08 08:05:00,78.4,74.2,29.92,WSW,238,0.0,0.0,87,0.00,,,0.00,Wunderground v.1.15,2013-06-08 12:05:00,
2013-06-08 08:15:00,78.8,73.9,29.93,WSW,244,0.0,8.0,85,0.00,,,0.00,Wunderground v.1.15,2013-06-08 12:15:00,
2013-06-08 08:25:00,78.9,74.0,29.93,West,275,9.0,10.0,85,0.00,,,0.00,Wunderground v.1.15,2013-06-08 12:25:00,
2013-06-08 08:30:00,78.9,73.7,29.94,West,260,8.0,8.0,84,0.00,,,0.00,Wunderground v.1.15,2013-06-08 12:30:00,
2013-06-08 08:40:00,79.1,73.1,29.94,West,274,8.0,8.0,82,0.00,,,0.00,Wunderground v.1.15,2013-06-08 12:40:00,
2013-06-08 08:45:00,79.1,72.8,29.94,WSW,254,8.0,10.0,81,0.00,,,0.00,Wunderground v.1.15,2013-06-08 12:45:00,
2013-06-08 08:55:00,79.2,72.9,29.95,West,267,10.0,12.0,81,0.00,,,0.00,Wunderground v.1.15,2013-06-08 12:55:00,
2013-06-08 09:05:00,79.4,72.7,29.95,WSW,244,10.0,10.0,80,0.00,,,0.00,Wunderground v.1.15,2013-06-08 13:05:00,
2013-06-08 09:10:00,79.7,73.0,29.95,West,261,9.0,9.0,80,0.00,,,0.00,Wunderground v.1.15,2013-06-08 13:10:00,
2013-06-08 09:15:00,79.9,73.2,29.95,WSW,251,7.0,9.0,80,0.00,,,0.00,Wunderground v.1.15,2013-06-08 13:15:00,
2013-06-08 09:25:00,80.0,72.9,29.96,WSW,251,9.0,11.0,79,0.00,,,0.00,Wunderground v.1.15,2013-06-08 13:25:00,
2013-06-08 09:30:00,79.9,72.8,29.95,SW,228,9.0,10.0,79,0.00,,,0.00,Wunderground v.1.15,2013-06-08 13:30:00,
2013-06-08 09:40:00,80.0,72.5,29.96,WSW,246,9.0,9.0,78,0.00,,,0.00,Wunderground v.1.15,2013-06-08 13:40:00,
2013-06-08 09:45:00,80.3,72.8,29.96,WSW,246,8.0,9.0,78,0.00,,,0.00,Wunderground v.1.15,2013-06-08 13:45:00,
2013-06-08 09:55:00,80.5,72.6,29.96,WSW,252,7.0,9.0,77,0.00,,,0.00,Wunderground v.1.15,2013-06-08 13:55:00,
2013-06-08 10:00:00,80.6,72.7,29.97,West,269,7.0,7.0,77,0.00,,,0.00,Wunderground v.1.15,2013-06-08 14:00:00,
2013-06-08 10:10:00,80.5,73.0,29.97,West,275,7.0,8.0,78,0.00,,,0.00,Wunderground v.1.15,2013-06-08 14:10:00,
2013-06-08 10:20:00,80.9,73.4,29.97,West,278,7.0,10.0,78,0.00,,,0.00,Wunderground v.1.15,2013-06-08 14:20:00,
2013-06-08 10:30:00,81.0,73.1,29.98,West,265,7.0,8.0,77,0.00,,,0.00,Wunderground v.1.15,2013-06-08 14:30:00,
2013-06-08 10:40:00,80.9,72.6,29.98,West,261,8.0,8.0,76,0.00,,,0.00,Wunderground v.1.15,2013-06-08 14:40:00,
2013-06-08 10:50:00,81.0,72.3,29.97,WNW,282,7.0,8.0,75,0.00,,,0.00,Wunderground v.1.15,2013-06-08 14:50:00,
2013-06-08 11:00:00,81.4,72.7,29.98,WSW,244,7.0,8.0,75,0.00,,,0.00,Wunderground v.1.15,2013-06-08 15:00:00,
2013-06-08 11:05:00,81.5,73.2,29.98,SW,234,7.0,9.0,76,0.00,,,0.00,Wunderground v.1.15,2013-06-08 15:05:00,
2013-06-08 11:15:00,81.8,72.7,29.98,West,269,9.0,9.0,74,0.00,,,0.00,Wunderground v.1.15,2013-06-08 15:15:00,
2013-06-08 11:25:00,82.5,72.6,29.98,West,270,7.0,8.0,72,0.00,,,0.00,Wunderground v.1.15,2013-06-08 15:25:00,
2013-06-08 11:35:00,82.6,72.7,29.98,WSW,240,8.0,9.0,72,0.00,,,0.00,Wunderground v.1.15,2013-06-08 15:35:00,
2013-06-08 11:45:00,82.9,72.9,29.99,WSW,254,8.0,10.0,72,0.00,,,0.00,Wunderground v.1.15,2013-06-08 15:45:00,
2013-06-08 11:50:00,83.0,73.0,29.99,West,267,8.0,8.0,72,0.00,,,0.00,Wunderground v.1.15,2013-06-08 15:50:00,
2013-06-08 12:00:00,83.0,72.6,29.99,West,266,9.0,9.0,71,0.00,,,0.00,Wunderground v.1.15,2013-06-08 16:00:00,
2013-06-08 12:10:00,82.9,71.7,29.99,West,259,8.0,8.0,69,0.00,,,0.00,Wunderground v.1.15,2013-06-08 16:10:00,
2013-06-08 12:20:00,84.1,72.8,29.99,WSW,250,5.0,6.0,69,0.00,,,0.00,Wunderground v.1.15,2013-06-08 16:20:00,
2013-06-08 12:25:00,83.8,73.0,29.99,WSW,242,6.0,6.0,70,0.00,,,0.00,Wunderground v.1.15,2013-06-08 16:25:00,
2013-06-08 12:35:00,84.1,72.8,29.98,SW,235,9.0,11.0,69,0.00,,,0.00,Wunderground v.1.15,2013-06-08 16:35:00,
2013-06-08 12:40:00,83.9,72.2,29.99,WNW,297,8.0,8.0,68,0.00,,,0.00,Wunderground v.1.15,2013-06-08 16:40:00,
2013-06-08 12:50:00,84.1,72.8,29.99,West,263,5.0,7.0,69,0.00,,,0.00,Wunderground v.1.15,2013-06-08 16:50:00,
2013-06-08 13:00:00,84.3,72.6,29.99,WSW,251,8.0,8.0,68,0.00,,,0.00,Wunderground v.1.15,2013-06-08 17:00:00,
2013-06-08 13:05:00,84.9,72.3,29.99,WSW,253,8.0,8.0,66,0.00,,,0.00,Wunderground v.1.15,2013-06-08 17:05:00,
2013-06-08 13:15:00,84.6,72.0,29.98,WSW,238,8.0,11.0,66,0.00,,,0.00,Wunderground v.1.15,2013-06-08 17:15:00,
2013-06-08 13:20:00,84.3,72.1,29.98,WSW,237,8.0,12.0,67,0.00,,,0.00,Wunderground v.1.15,2013-06-08 17:20:00,
2013-06-08 13:30:00,84.3,72.1,29.98,West,276,9.0,9.0,67,0.00,,,0.00,Wunderground v.1.15,2013-06-08 17:30:00,
2013-06-08 13:40:00,85.1,72.0,29.98,WSW,238,8.0,8.0,65,0.00,,,0.00,Wunderground v.1.15,2013-06-08 17:40:00,
2013-06-08 13:50:00,84.7,71.6,29.98,WNW,284,9.0,9.0,65,0.00,,,0.00,Wunderground v.1.15,2013-06-08 17:50:00,
2013-06-08 14:00:00,84.3,71.7,29.98,WSW,255,8.0,8.0,66,0.00,,,0.00,Wunderground v.1.15,2013-06-08 18:00:00,
2013-06-08 14:05:00,84.5,72.8,29.98,WSW,254,6.0,10.0,68,0.00,,,0.00,Wunderground v.1.15,2013-06-08 18:05:00,
2013-06-08 14:10:00,85.0,72.4,29.98,WSW,248,7.0,7.0,66,0.00,,,0.00,Wunderground v.1.15,2013-06-08 18:10:00,
2013-06-08 14:20:00,85.3,72.6,29.98,WSW,244,5.0,5.0,66,0.00,,,0.00,Wunderground v.1.15,2013-06-08 18:20:00,
2013-06-08 14:25:00,84.8,75.6,29.98,SSW,200,1.0,5.0,74,0.00,,,0.00,Wunderground v.1.15,2013-06-08 18:25:00,
2013-06-08 14:35:00,81.9,76.2,29.98,SSW,200,8.0,13.0,83,0.00,,,0.00,Wunderground v.1.15,2013-06-08 18:35:00,
2013-06-08 14:40:00,81.6,76.6,29.98,SW,226,9.0,9.0,85,0.00,,,0.00,Wunderground v.1.15,2013-06-08 18:40:00,
2013-06-08 14:50:00,80.9,76.0,29.98,SW,216,10.0,10.0,85,0.00,,,0.00,Wunderground v.1.15,2013-06-08 18:50:00,
2013-06-08 15:00:00,81.1,76.5,29.98,SW,221,10.0,16.0,86,0.00,,,0.00,Wunderground v.1.15,2013-06-08 19:00:00,
2013-06-08 15:10:00,81.2,77.0,29.99,SW,219,12.0,13.0,87,0.00,,,0.00,Wunderground v.1.15,2013-06-08 19:10:00,
2013-06-08 15:20:00,81.3,76.4,29.99,SSW,192,10.0,12.0,85,0.00,,,0.00,Wunderground v.1.15,2013-06-08 19:20:00,
2013-06-08 15:25:00,80.9,76.3,29.99,SSW,203,11.0,12.0,86,0.00,,,0.00,Wunderground v.1.15,2013-06-08 19:25:00,
2013-06-08 15:35:00,81.4,76.8,29.98,SSW,207,10.0,10.0,86,0.00,,,0.00,Wunderground v.1.15,2013-06-08 19:35:00,
2013-06-08 15:45:00,80.8,76.2,29.98,SW,214,12.0,12.0,86,0.00,,,0.00,Wunderground v.1.15,2013-06-08 19:45:00,
2013-06-08 15:55:00,80.6,76.0,29.98,SW,219,12.0,14.0,86,0.00,,,0.00,Wunderground v.1.15,2013-06-08 19:55:00,
2013-06-08 16:05:00,81.5,76.6,29.98,SW,221,11.0,15.0,85,0.00,,,0.00,Wunderground v.1.15,2013-06-08 20:05:00,
2013-06-08 16:15:00,81.5,76.6,29.98,SSW,208,11.0,12.0,85,0.00,,,0.00,Wunderground v.1.15,2013-06-08 20:15:00,
2013-06-08 16:25:00,82.0,77.0,29.98,SW,215,10.0,13.0,85,0.00,,,0.00,Wunderground v.1.15,2013-06-08 20:25:00,
2013-06-08 16:35:00,81.7,76.0,29.98,South,190,11.0,11.0,83,0.00,,,0.00,Wunderground v.1.15,2013-06-08 20:35:00,
2013-06-08 16:40:00,81.6,77.0,29.98,SW,234,10.0,10.0,86,0.00,,,0.00,Wunderground v.1.15,2013-06-08 20:40:00,
2013-06-08 16:50:00,81.0,76.4,29.98,SW,222,10.0,11.0,86,0.00,,,0.00,Wunderground v.1.15,2013-06-08 20:50:00,
2013-06-08 17:00:00,82.0,77.4,29.98,SSW,209,9.0,10.0,86,0.00,,,0.00,Wunderground v.1.15,2013-06-08 21:00:00,
2013-06-08 17:10:00,80.8,76.6,29.99,SSW,194,9.0,9.0,87,0.00,,,0.00,Wunderground v.1.15,2013-06-08 21:10:00,
2013-06-08 17:20:00,81.2,76.6,29.98,SSW,211,10.0,15.0,86,0.00,,,0.00,Wunderground v.1.15,2013-06-08 21:20:00,
2013-06-08 17:25:00,81.0,76.4,29.99,SW,218,11.0,15.0,86,0.00,,,0.00,Wunderground v.1.15,2013-06-08 21:25:00,
2013-06-08 17:35:00,80.2,76.3,29.98,SW,218,10.0,11.0,88,0.00,,,0.00,Wunderground v.1.15,2013-06-08 21:35:00,
2013-06-08 17:45:00,79.8,76.3,29.99,SSW,201,10.0,10.0,89,0.00,,,0.00,Wunderground v.1.15,2013-06-08 21:45:00,
2013-06-08 17:55:00,79.7,76.2,29.99,SSW,205,8.0,9.0,89,0.00,,,0.00,Wunderground v.1.15,2013-06-08 21:55:00,
2013-06-08 18:00:00,79.6,76.4,29.99,SW,222,9.0,10.0,90,0.00,,,0.00,Wunderground v.1.15,2013-06-08 22:00:00,
2013-06-08 18:10:00,79.4,76.2,29.99,SW,229,9.0,9.0,90,0.00,,,0.00,Wunderground v.1.15,2013-06-08 22:10:00,
2013-06-08 18:20:00,79.7,76.2,29.99,SW,219,9.0,11.0,89,0.00,,,0.00,Wunderground v.1.15,2013-06-08 22:20:00,
2013-06-08 18:25:00,79.7,76.2,30.00,SW,215,10.0,11.0,89,0.00,,,0.00,Wunderground v.1.15,2013-06-08 22:25:00,
2013-06-08 18:35:00,79.6,76.1,30.00,SW,223,8.0,10.0,89,0.00,,,0.00,Wunderground v.1.15,2013-06-08 22:35:00,
2013-06-08 18:40:00,79.8,76.3,30.00,SW,225,9.0,9.0,89,0.00,,,0.00,Wunderground v.1.15,2013-06-08 22:40:00,
2013-06-08 18:50:00,79.9,76.0,30.00,SW,223,9.0,12.0,88,0.00,,,0.00,Wunderground v.1.15,2013-06-08 22:50:00,
2013-06-08 18:55:00,79.8,75.9,30.01,SSW,211,9.0,12.0,88,0.00,,,0.00,Wunderground v.1.15,2013-06-08 22:55:00,
2013-06-08 19:05:00,79.6,76.1,30.01,SW,232,9.0,9.0,89,0.00,,,0.00,Wunderground v.1.15,2013-06-08 23:05:00,
2013-06-08 19:10:00,79.4,76.2,30.02,SW,224,10.0,11.0,90,0.00,,,0.00,Wunderground v.1.15,2013-06-08 23:10:00,
2013-06-08 19:20:00,79.4,76.2,30.02,SW,221,9.0,9.0,90,0.00,,,0.00,Wunderground v.1.15,2013-06-08 23:20:00,
2013-06-08 19:25:00,79.3,76.1,30.02,SW,225,9.0,9.0,90,0.00,,,0.00,Wunderground v.1.15,2013-06-08 23:25:00,
2013-06-08 19:35:00,79.2,76.3,30.02,SW,219,8.0,9.0,91,0.00,,,0.00,Wunderground v.1.15,2013-06-08 23:35:00,
2013-06-08 19:45:00,79.3,76.4,30.02,SW,232,7.0,8.0,91,0.00,,,0.00,Wunderground v.1.15,2013-06-08 23:45:00,
2013-06-08 19:50:00,79.3,76.4,30.02,SW,234,7.0,7.0,91,0.00,,,0.00,Wunderground v.1.15,2013-06-08 23:50:00,
2013-06-08 20:00:00,79.4,76.2,30.03,SW,223,8.0,8.0,90,0.00,,,0.00,Wunderground v.1.15,2013-06-09 00:00:00,
2013-06-08 20:10:00,79.5,76.3,30.03,SW,232,6.0,6.0,90,0.00,,,0.00,Wunderground v.1.15,2013-06-09 00:10:00,
2013-06-08 20:15:00,79.6,76.4,30.03,SW,229,6.0,6.0,90,0.00,,,0.00,Wunderground v.1.15,2013-06-09 00:15:00,
2013-06-08 20:25:00,79.6,76.4,30.04,SSW,207,3.0,4.0,90,0.00,,,0.00,Wunderground v.1.15,2013-06-09 00:25:00,
2013-06-08 20:35:00,79.4,76.2,30.04,SW,215,0.0,1.0,90,0.00,,,0.00,Wunderground v.1.15,2013-06-09 00:35:00,
2013-06-08 20:45:00,79.3,76.1,30.05,SSW,213,0.0,0.0,90,0.00,,,0.00,Wunderground v.1.15,2013-06-09 00:45:00,
2013-06-08 20:50:00,79.3,76.1,30.05,SW,219,0.0,0.0,90,0.00,,,0.00,Wunderground v.1.15,2013-06-09 00:50:00,
2013-06-08 21:00:00,79.1,75.9,30.05,SW,219,0.0,0.0,90,0.00,,,0.00,Wunderground v.1.15,2013-06-09 01:00:00,
2013-06-08 21:10:00,79.0,75.8,30.05,SW,227,0.0,0.0,90,0.00,,,0.00,Wunderground v.1.15,2013-06-09 01:10:00,
2013-06-08 21:20:00,78.9,75.7,30.06,SW,224,0.0,0.0,90,0.00,,,0.00,Wunderground v.1.15,2013-06-09 01:20:00,
2013-06-08 21:25:00,79.0,75.8,30.06,SW,225,0.0,0.0,90,0.00,,,0.00,Wunderground v.1.15,2013-06-09 01:25:00,
2013-06-08 21:35:00,78.9,75.0,30.06,SW,232,0.0,0.0,88,0.00,,,0.00,Wunderground v.1.15,2013-06-09 01:35:00,
2013-06-08 21:45:00,79.1,75.2,30.06,SW,228,0.0,0.0,88,0.00,,,0.00,Wunderground v.1.15,2013-06-09 01:45:00,
2013-06-08 21:55:00,79.0,75.1,30.07,WSW,254,0.0,0.0,88,0.00,,,0.00,Wunderground v.1.15,2013-06-09 01:55:00,
2013-06-08 22:00:00,78.8,74.6,30.07,WSW,247,0.0,0.0,87,0.00,,,0.00,Wunderground v.1.15,2013-06-09 02:00:00,
2013-06-08 22:10:00,78.7,74.5,30.08,SW,229,0.0,0.0,87,0.00,,,0.00,Wunderground v.1.15,2013-06-09 02:10:00,
2013-06-08 22:20:00,78.8,74.9,30.08,SW,232,0.0,0.0,88,0.00,,,0.00,Wunderground v.1.15,2013-06-09 02:20:00,
2013-06-08 22:30:00,78.8,75.6,30.08,SW,227,0.0,0.0,90,0.00,,,0.00,Wunderground v.1.15,2013-06-09 02:30:00,
2013-06-08 22:35:00,78.7,75.8,30.08,SW,232,0.0,0.0,91,0.00,,,0.00,Wunderground v.1.15,2013-06-09 02:35:00,
2013-06-08 22:40:00,78.5,75.7,30.09,SW,217,0.0,0.0,91,0.00,,,0.00,Wunderground v.1.15,2013-06-09 02:40:00,
2013-06-08 22:50:00,78.3,75.8,30.09,SSW,211,0.0,0.0,92,0.00,,,0.00,Wunderground v.1.15,2013-06-09 02:50:00,
2013-06-08 23:00:00,78.2,75.7,30.09,SW,229,0.0,0.0,92,0.00,,,0.00,Wunderground v.1.15,2013-06-09 03:00:00,
2013-06-08 23:10:00,78.2,75.7,30.09,SW,219,0.0,0.0,92,0.00,,,0.00,Wunderground v.1.15,2013-06-09 03:10:00,
2013-06-08 23:15:00,78.1,75.6,30.09,SW,225,0.0,0.0,92,0.00,,,0.00,Wunderground v.1.15,2013-06-09 03:15:00,
2013-06-08 23:25:00,78.0,75.5,30.09,WSW,240,0.0,0.0,92,0.00,,,0.00,Wunderground v.1.15,2013-06-09 03:25:00,
2013-06-08 23:35:00,78.0,75.8,30.09,SW,228,0.0,0.0,93,0.00,,,0.00,Wunderground v.1.15,2013-06-09 03:35:00,
2013-06-08 23:45:00,77.9,75.7,30.09,SW,220,0.0,0.0,93,0.00,,,0.00,Wunderground v.1.15,2013-06-09 03:45:00,
2013-06-08 23:50:00,77.9,75.7,30.09,SW,215,0.0,0.0,93,0.00,,,0.00,Wunderground v.1.15,2013-06-09 03:50:00,